Location: Newark
(52.4787°S, 179.0532°W)
Time: 06:54:37
(UTC+00:00)

Envisat - Pass Details

Date: 25 October 2019
Orbit: 764 x 766 km, 98.1° (Epoch: 21 November)

Event Time Altitude Azimuth Distance (km) Brightness Sun altitude
Rises 08:53:51 0° 175° (S) 3,278 6.9 -16.2°
Reaches altitude 10° 08:56:54 10° 193° (SSW) 2,344 6.5 -16.5°
Maximum altitude 09:00:12 17° 233° (SW) 1,871 6.0 -16.9°
Drops below altitude 10° 09:03:29 10° 273° (W) 2,329 6.0 -17.2°
Sets 09:06:30 0° 291° (WNW) 3,249 6.5 -17.5°
